NILESAT 201

Last updated on Tue Oct 15 2024 00:02:38 GMT+0000 (Coordinated Universal Time)

1 36830U 10037A 24288.20674492 -.00000059 00000+0 00000+0 0 9992 2 36830 0.0224 157.3687 0005646 43.5950 249.7367 1.00271501 52231
UTC large
Height (km)
Speed (km/s)
/
Latitude / Longitude
Inclination (degrees)
Orbital Period (minutes)
Azimuth
Elevation
Range (km)
Doppler Factor

Next 0 passes for location: London (51.5072 / 0.1276)

Sorry there are no passes over London.